Weather History for KEYW - September, 2011

Change the Weather History Date:

Sunday, September 4, 2011

  Actual Average Record
Temperature  
Mean Temperature 87 °F 84 °F  
Max Temperature 89 °F 89 °F 94 °F (1951)
Min Temperature 84 °F 79 °F 70 °F (1958)
Degree Days  
Heating Degree Days 0 0  
Month to date heating degree days 0 0  
Since 1 July heating degree days 0 0  
Cooling Degree Days 22 19  
Month to date cooling degree days 82 76  
Year to date cooling degree days 3539 3265  
Growing Degree Days 36 (Base 50)    
Moisture  
Dew Point 76 °F    
Average Humidity 75    
Maximum Humidity 82    
Minimum Humidity 68    
Precipitation  
Precipitation 0.00 in 0.21 in 3.62 in (1945)
Month to date precipitation 0.42 0.86  
Year to date precipitation 18.10 24.53  
Snow  
Snow 0.00 in - - ()
Month to date snowfall 0.0  
Since 1 July snowfall 0.0  
Since 1 September snowfall 0.0  
Snow Depth 0.00 in    
Sea Level Pressure  
Sea Level Pressure 29.90 in    
Wind  
Wind Speed 10 mph (South)    
Max Wind Speed 16 mph    
Max Gust Speed 18 mph    
Visibility 10 miles    
Events      
T = Trace of Precipitation, MM = Missing Value Source: NWS Daily Summary

Daily Weather History Graph

Daily Weather History Graph

Search for Another Location

Airport or City:

Trip Planner

Search our weather history database for the weather conditions in past years. The results will help you decide how hot, cold, wet, or windy it might be!

Date:

Astronomy

Sep. 04, 2011 Rise Set
Actual Time 7:09 AM EDT 7:42 PM EDT
Civil Twilight 6:46 AM EDT 8:05 PM EDT
Nautical Twilight 6:19 AM EDT 8:32 PM EDT
Astronomical Twilight 5:51 AM EDT 8:59 PM EDT
Moon 1:59 PM EDT (9/4) No Moon Set
Length of Visible Light 13h 19m
Length of Day
12h 33m
Waxing Crescent, 49% of the Moon is Illuminated
Sep 4
Waxing Crescent
Sep 4
First Quarter
Sep 12
Full
Sep 20
Last Quarter
Sep 27
New

Hourly Weather History & Observations

Time (EDT) Temp. Heat Index Dew Point Humidity Pressure Visibility Wind Dir Wind Speed Gust Speed Precip Events Conditions
12:53 AM 84.9 °F 94.1 °F 75.9 °F 74% 29.90 in 10.0 mi South 6.9 mph - N/A   Clear
1:53 AM 84.0 °F 93.7 °F 77.0 °F 79% 29.89 in 10.0 mi South 5.8 mph - N/A   Clear
2:53 AM 84.0 °F 93.7 °F 77.0 °F 79% 29.88 in 10.0 mi South 8.1 mph - N/A   Clear
3:53 AM 84.0 °F 92.6 °F 75.9 °F 76% 29.87 in 10.0 mi SSE 5.8 mph - N/A   Clear
4:53 AM 84.2 °F 92.3 °F 75.2 °F 74% 29.87 in 10.0 mi South 10.4 mph - N/A   Clear
5:53 AM 84.9 °F 95.3 °F 77.0 °F 77% 29.88 in 10.0 mi South 12.7 mph - N/A   Clear
6:53 AM 84.0 °F 93.7 °F 77.0 °F 79% 29.88 in 10.0 mi South 11.5 mph - N/A   Scattered Clouds
7:53 AM 84.9 °F 95.3 °F 77.0 °F 77% 29.90 in 10.0 mi South 8.1 mph - N/A   Partly Cloudy
8:53 AM 84.9 °F 96.6 °F 78.1 °F 80% 29.91 in 10.0 mi South 9.2 mph - N/A   Partly Cloudy
9:53 AM 86.0 °F 96.9 °F 77.0 °F 74% 29.92 in 10.0 mi South 11.5 mph - N/A   Clear
10:53 AM 87.1 °F 97.3 °F 75.9 °F 69% 29.93 in 10.0 mi South 11.5 mph - N/A   Clear
11:53 AM 88.0 °F 98.5 °F 75.9 °F 67% 29.94 in 10.0 mi South 11.5 mph - N/A   Clear
12:53 PM 87.1 °F 97.3 °F 75.9 °F 69% 29.94 in 10.0 mi South 10.4 mph - N/A   Clear
1:53 PM 88.0 °F 100.2 °F 77.0 °F 70% 29.92 in 10.0 mi South 8.1 mph - N/A   Clear
2:53 PM 87.1 °F 97.3 °F 75.9 °F 69% 29.90 in 10.0 mi South 8.1 mph - N/A   Clear
3:53 PM 88.0 °F 97.5 °F 75.0 °F 65% 29.88 in 10.0 mi South 8.1 mph - N/A   Clear
4:53 PM 88.0 °F 97.5 °F 75.0 °F 65% 29.87 in 10.0 mi SSE 6.9 mph - N/A   Clear
5:53 PM 88.0 °F 97.5 °F 75.0 °F 65% 29.88 in 10.0 mi SSE 10.4 mph - N/A   Clear
6:53 PM 87.1 °F 97.3 °F 75.9 °F 69% 29.86 in 10.0 mi SE 8.1 mph - N/A   Clear
7:53 PM 86.0 °F 96.0 °F 75.9 °F 72% 29.89 in 10.0 mi SSE 13.8 mph - N/A   Clear
8:53 PM 84.9 °F 92.1 °F 73.9 °F 69% 29.91 in 10.0 mi South 11.5 mph - N/A   Clear
9:53 PM 84.9 °F 94.1 °F 75.9 °F 74% 29.92 in 10.0 mi SSE 9.2 mph - N/A   Clear
10:53 PM 84.9 °F 92.1 °F 73.9 °F 69% 29.92 in 10.0 mi SSE 6.9 mph - N/A   Clear
11:53 PM 84.9 °F 94.1 °F 75.9 °F 74% 29.93 in 10.0 mi SSE 10.4 mph - N/A   Clear